This is the latest recevied weather packets stored in our database for station/object K7KAZ. If no packets are shown the sender has not sent any weather packets the latest 10 day(s).
| Time | Temp. | Humidity | Pressure | Rain* | Wind** | Luminosity | Snow |
|---|---|---|---|---|---|---|---|
| 1777483938 | 26.11° C | 19% | 1017.9 hPa | 0 mm | - | 636 W/m² | - |
| 1777483635 | 25.56° C | 20% | 1018 hPa | 0 mm | - | 760 W/m² | - |
| 1777483330 | 26.11° C | 20% | 1018 hPa | 0 mm | - | 840 W/m² | - |
| 1777483026 | 25.56° C | 20% | 1017.7 hPa | 0 mm | - | 752 W/m² | - |
| 1777482723 | 26.11° C | 20% | 1017.9 hPa | 0 mm | - | 757 W/m² | - |
| 1777482419 | 25.56° C | 20% | 1018.1 hPa | 0 mm | - | 853 W/m² | - |
| 1777482116 | 26.11° C | 20% | 1018.2 hPa | 0 mm | - | 804 W/m² | - |
| 1777481814 | 25° C | 20% | 1017.9 hPa | 0 mm | - | 784 W/m² | - |
| 1777481511 | 25° C | 20% | 1018.2 hPa | 0 mm | - | 744 W/m² | - |
| 1777481207 | 25.56° C | 21% | 1018.2 hPa | 0 mm | - | 646 W/m² | - |
| 1777480904 | 25° C | 21% | 1018 hPa | 0 mm | - | 705 W/m² | - |
| 1777480601 | 23.89° C | 21% | 1018 hPa | 0 mm | - | 652 W/m² | - |
| 1777480298 | 24.44° C | 21% | 1018.1 hPa | 0 mm | - | 599 W/m² | - |
| 1777479994 | 24.44° C | 21% | 1018.1 hPa | 0 mm | - | 640 W/m² | - |
| 1777479691 | 23.89° C | 21% | 1018 hPa | 0 mm | - | 582 W/m² | - |
| 1777479389 | 23.89° C | 21% | 1018.1 hPa | 0 mm | - | 604 W/m² | - |
| 1777479084 | 23.89° C | 22% | 1018.1 hPa | 0 mm | - | 599 W/m² | - |
| 1777478781 | 23.89° C | 21% | 1018.1 hPa | 0 mm | - | 535 W/m² | - |
| 1777478478 | 23.89° C | 22% | 1018.1 hPa | 0 mm | - | 531 W/m² | - |
| 1777478175 | 23.33° C | 22% | 1017.9 hPa | 0 mm | - | 481 W/m² | - |
| 1777477871 | 23.33° C | 22% | 1017.6 hPa | 0 mm | - | 552 W/m² | - |
| 1777477566 | 22.78° C | 22% | 1018.2 hPa | 0 mm | - | 499 W/m² | - |
| 1777477263 | 22.78° C | 22% | 1018.1 hPa | 0 mm | - | 450 W/m² | - |
| 1777476960 | 22.78° C | 23% | 1018.3 hPa | 0 mm | - | 399 W/m² | - |
| 1777476658 | 22.22° C | 23% | 1018.3 hPa | 0 mm | - | 395 W/m² | - |
* Rain latest hour (hover to see other rain measurements)
** Current wind speed in m/s (hover to see current wind gust speed)